Terminal Aerodrome Forecast
Issued by NWS Sioux Falls, SD

Home | Current Version | Previous Version | Text Only | Print | Product List | Glossary On
Versions: 1 2 3 4 5 6 7 8 9 10 11 12 13 14 15 16 17
000
FTUS43 KFSD 211740
TAFFSD
TAF
KFSD 211740Z 2118/2218 18016G23KT P6SM BKN200
     FM212200 18011KT P6SM BKN120
     FM220200 17008KT P6SM BKN120=

USA.gov is the U.S. government's official web portal to all federal, state and local government web resources and services.